Flag for Portugal Weather past 2 weeks in Faro, Portugal

Now
70 °F

Sunny.


Feels Like: 70 °F
Forecast: 57 / 76 °F
Wind: 3 mph from South

Location: Faro / Aeroporto

Current Time: Mar 31, 2015 at 7:36:26 PM

Latest Report: Mar 31, 2015 at 7:00 PM


Visibility: 10 mi

Pressure: 30.21 "Hg

Humidity: 73%

Dew point: 61 °F

Location of FaroLocation

Historic Weather in Faro — Graph

°F

Faro temperature yesterday

Maximum temperature yesterday: 75 °F (at 4:30 PM)
Minimum temperature yesterday: 55 °F (at 7:00 AM)
Average temperature yesterday: 65 °F

Past Weeks' High & Low Weather Summary

 TemperatureHumidityPressure
High82 °F (Mar 29, 3:30 PM)100% (Mar 20, 10:30 PM)30.36 "Hg (Mar 20, 10:30 PM)
Low46 °F (Mar 24, 7:30 AM)21% (Mar 29, 4:00 PM)29.62 "Hg (Mar 24, 4:30 AM)
Average59 °F72%29.99 "Hg
* Reported Mar 16 5:00 PM — Mar 31 6:30 PM, Faro, Weather by CustomWeather, © 2015

Note: Actual official high and low records may vary slightly from our data, if they occured in-between our weather recording intervals... More about our weather records

Advertising

Faro weather history for previous 24 hours

 ConditionsComfort  
Time TempWeatherWind HumidityBarometerVisibility
6:30 PM
Tue, Mar 31
72 °FPassing clouds.5 mph65%30.21 "HgN/A
6:00 PM72 °FSunny.2 mph65%30.21 "Hg10 mi
5:30 PM72 °FSunny.5 mph61%30.21 "Hg10 mi
5:00 PM70 °FSunny.6 mph64%30.21 "Hg10 mi
4:30 PM70 °FSunny.8 mph64%30.24 "Hg10 mi
4:00 PM73 °FPassing clouds.9 mph50%30.24 "HgN/A
3:30 PM73 °FSunny.8 mph47%30.24 "Hg10 mi
3:00 PM73 °FSunny.7 mph53%30.24 "Hg10 mi
2:30 PM73 °FSunny.8 mph47%30.27 "Hg10 mi
2:04 PM75 °FSunny.8 mph47%30.27 "Hg10 mi
2:00 PM72 °FSunny.9 mph53%30.27 "Hg10 mi
1:30 PM72 °FSunny.8 mph53%30.27 "Hg10 mi
1:00 PM75 °FSunny.7 mph47%30.27 "Hg10 mi
12:30 PM73 °FSunny.7 mph44%30.30 "Hg10 mi
12:00 PM73 °FSunny.6 mph44%30.30 "Hg10 mi
11:30 AM73 °FSunny.6 mph47%30.30 "Hg10 mi
11:00 AM72 °FPassing clouds.5 mph53%30.33 "HgN/A
10:30 AM72 °FPassing clouds.3 mph53%30.33 "HgN/A
10:00 AM70 °FSunny.2 mph53%30.33 "Hg10 mi
9:30 AM68 °FSunny.2 mph56%30.30 "Hg10 mi
9:00 AM64 °FPassing clouds.3 mph60%30.30 "HgN/A
8:30 AM59 °FPassing clouds.3 mph77%30.30 "HgN/A
8:00 AM55 °FClear.5 mph82%30.30 "Hg10 mi
7:30 AM57 °FPassing clouds.3 mph72%30.27 "HgN/A
7:00 AM59 °FClear.2 mph68%30.27 "Hg10 mi
6:30 AM57 °FPassing clouds.3 mph72%30.27 "HgN/A
6:00 AM57 °FPassing clouds.5 mph72%30.27 "HgN/A
5:30 AM57 °FClear.3 mph77%30.27 "Hg10 mi
5:00 AM59 °FPassing clouds.3 mph72%30.24 "HgN/A
4:30 AM59 °FClear.3 mph72%30.27 "Hg10 mi
4:00 AM63 °FClear.5 mph64%30.27 "Hg10 mi
3:47 AM63 °FClear.5 mph64%30.27 "Hg10 mi
3:00 AM59 °FClear.2 mph72%30.30 "Hg10 mi
2:30 AM61 °FClear.3 mph68%30.30 "Hg10 mi
2:00 AM63 °FClear.6 mph64%30.30 "Hg10 mi
1:30 AM64 °FClear.8 mph64%30.33 "Hg10 mi
1:00 AM64 °FClear.6 mph64%30.33 "Hg10 mi
12:30 AM64 °FClear.6 mph68%30.33 "Hg10 mi
12:00 AM64 °FClear.8 mph73%30.33 "Hg10 mi
11:30 PM
Mon, Mar 30
63 °FClear.7 mph77%30.33 "Hg10 mi
11:00 PM64 °FClear.7 mph73%30.33 "Hg10 mi
10:30 PM66 °FClear.7 mph60%30.33 "Hg10 mi
10:00 PM70 °FClear.6 mph50%30.30 "Hg10 mi
9:30 PM73 °FClear.7 mph44%30.30 "Hg10 mi
9:00 PM73 °FClear.7 mph41%30.30 "Hg10 mi
8:30 PM72 °FSunny.7 mph61%30.30 "Hg10 mi
8:00 PM72 °FPassing clouds.3 mph65%30.30 "HgN/A
7:47 PM72 °FSunny.3 mph65%30.30 "Hg10 mi
7:30 PM68 °FSunny.No wind73%30.30 "Hg10 mi
7:00 PM68 °FPassing clouds.5 mph73%30.30 "HgN/A
Weather by CustomWeather, © 2015

See weather overviewHow to use our weather pages